Weather History for Hanford, CA

Change the Weather History Date:

Saturday, April 26, 2014

  Actual Average Record
Temperature  
Mean Temperature 57 °F 64 °F  
Max Temperature 67 °F 78 °F 96 °F (2004)
Min Temperature 46 °F 49 °F 42 °F (2009)
Degree Days  
Heating Degree Days 8    
Month to date heating degree days 83  
Since 1 July heating degree days 2035  
Cooling Degree Days 0    
Month to date cooling degree days 64  
Year to date cooling degree days 64  
Growing Degree Days 5 (Base 50)    
Moisture  
Dew Point 44 °F    
Average Humidity 67    
Maximum Humidity 93    
Minimum Humidity 40    
Precipitation  
Precipitation 0.00 in 0.02 in 0.03 in (2006)
Month to date precipitation 0.20 0.69  
Year to date precipitation 2.43 6.09  
Since 1 July precipitation 2.82 9.43  
Snow  
Snow 0.00 in - - ()
Month to date snowfall 0.0  
Since 1 July snowfall 0.0  
Snow Depth 0.00 in    
Sea Level Pressure  
Sea Level Pressure 29.95 in    
Wind  
Wind Speed 8 mph (NW)    
Max Wind Speed 21 mph    
Max Gust Speed 26 mph    
Visibility 10 miles    
Events      
T = Trace of Precipitation, MM = Missing Value Source: NWS Daily Summary

Daily Weather History Graph

Daily Weather History Graph

Search for Another Location

Airport:

Trip Planner

Search our weather history database for the weather conditions in past years. The results will help you decide how hot, cold, wet, or windy it might be!

Date:

Astronomy

Apr. 26, 2014 Rise Set
Actual Time 6:11 AM PDT 7:42 PM PDT
Civil Twilight 5:43 AM PDT 8:09 PM PDT
Nautical Twilight 5:11 AM PDT 8:42 PM PDT
Astronomical Twilight 4:36 AM PDT 9:16 PM PDT
Moon 4:33 AM PDT (4/26) 5:20 PM PDT (4/26)
Length of Visible Light 14h 25m
Length of Day
13h 31m
Waning Crescent, 7% of the Moon is Illuminated
Apr 26
Waning Crescent
Apr 28
New
May 6
First Quarter
May 14
Full
May 21
Last Quarter

Hourly Weather History & Observations

Time (PDT) Temp. Dew Point Humidity Pressure Visibility Wind Dir Wind Speed Gust Speed Precip Events Conditions
12:53 AM 46.9 °F 45.0 °F 93% 29.87 in 10.0 mi SSW 3.5 mph - N/A   Partly Cloudy
1:53 AM 46.0 °F 45.0 °F 96% 29.86 in 10.0 mi Calm Calm - N/A   Partly Cloudy
2:53 AM 46.9 °F 45.0 °F 93% 29.84 in 10.0 mi WSW 5.8 mph - N/A   Overcast
3:53 AM 48.0 °F 46.0 °F 93% 29.84 in 10.0 mi West 3.5 mph - N/A   Overcast
4:37 AM 48.0 °F 46.0 °F 93% 29.85 in 10.0 mi NNE 6.9 mph - N/A   Overcast
4:53 AM 48.0 °F 46.0 °F 93% 29.86 in 10.0 mi Calm Calm - N/A   Overcast
5:53 AM 48.9 °F 46.0 °F 90% 29.88 in 10.0 mi WNW 6.9 mph - N/A   Overcast
6:53 AM 48.9 °F 46.0 °F 90% 29.90 in 10.0 mi NW 5.8 mph - N/A   Overcast
7:53 AM 50.0 °F 45.0 °F 83% 29.92 in 10.0 mi NNW 6.9 mph - N/A   Mostly Cloudy
8:12 AM 50.0 °F 45.0 °F 83% 29.91 in 10.0 mi NW 8.1 mph - N/A   Overcast
8:19 AM 50.0 °F 46.0 °F 86% 29.92 in 10.0 mi NNW 8.1 mph - N/A   Overcast
8:53 AM 52.0 °F 45.0 °F 77% 29.95 in 10.0 mi NW 11.5 mph - N/A   Mostly Cloudy
9:21 AM 54.0 °F 46.0 °F 75% 29.96 in 10.0 mi NW 12.7 mph - N/A   Mostly Cloudy
9:33 AM 54.0 °F 46.0 °F 75% 29.96 in 10.0 mi NW 13.8 mph - N/A   Mostly Cloudy
9:53 AM 55.9 °F 46.0 °F 69% 29.97 in 10.0 mi NNW 13.8 mph - N/A   Mostly Cloudy
10:06 AM 54.0 °F 45.0 °F 72% 29.96 in 10.0 mi WNW 12.7 mph - N/A   Overcast
10:53 AM 54.0 °F 46.0 °F 75% 29.99 in 10.0 mi Variable 6.9 mph - N/A   Overcast
11:53 AM 55.9 °F 46.9 °F 72% 29.99 in 10.0 mi North 5.8 mph - N/A   Mostly Cloudy
12:53 PM 59.0 °F 43.0 °F 55% 30.00 in 10.0 mi Variable 4.6 mph - N/A   Overcast
1:53 PM 60.1 °F 46.0 °F 60% 29.99 in 10.0 mi Variable 4.6 mph - N/A   Mostly Cloudy
2:53 PM 62.1 °F 43.0 °F 50% 30.00 in 10.0 mi WNW 6.9 mph - N/A   Partly Cloudy
3:53 PM 64.0 °F 41.0 °F 43% 29.99 in 10.0 mi NW 10.4 mph 17.3 mph N/A   Scattered Clouds
4:53 PM 64.9 °F 41.0 °F 42% 29.99 in 10.0 mi North 11.5 mph 17.3 mph N/A   Partly Cloudy
5:11 PM 64.9 °F 39.9 °F 40% 29.98 in 10.0 mi North 11.5 mph - N/A   Partly Cloudy
5:53 PM 64.9 °F 41.0 °F 42% 29.98 in 10.0 mi North 10.4 mph - N/A   Clear
6:53 PM 64.0 °F 39.0 °F 40% 29.98 in 10.0 mi North 11.5 mph - N/A   Clear
7:53 PM 61.0 °F 41.0 °F 48% 29.98 in 10.0 mi NNW 6.9 mph - N/A   Clear
8:53 PM 57.0 °F 42.1 °F 57% 30.00 in 10.0 mi NW 5.8 mph - N/A   Clear
9:53 PM 55.9 °F 44.1 °F 64% 30.04 in 10.0 mi NW 8.1 mph - N/A   Clear
10:53 PM 55.0 °F 39.9 °F 57% 30.05 in 10.0 mi NW 17.3 mph - N/A   Clear
11:53 PM 53.1 °F 41.0 °F 64% 30.06 in 10.0 mi NW 13.8 mph - N/A   Clear